Location: Quebec
(46.8000°N, 71.2500°W)
Time: 21:34:19
(UTC-04:00)

Envisat - Pass Details

Date: 12 October 2017
Orbit: 764 x 766 km, 98.2° (Epoch: 19 October)

Event Time Altitude Azimuth Distance (km) Brightness Sun altitude
Exits shadow 19:53:45 39° 108° (ESE) 1,133 3.4 -19.7°
Maximum altitude 19:54:58 47° 69° (ENE) 1,005 3.2 -19.9°
Drops below altitude 10° 19:59:50 10° 357° (N) 2,313 5.6 -20.7°
Sets 20:02:12 0° 352° (N) 3,243 6.5 -21.1°
